This demonstration page uses our WeatherBlox Daily Observations layout. Learn more.

Left ArrowRight Arrow

30.21309, -93.2044

Hourly Observations for July 30, 2019

Temp ( °F °C ) Dew Point ( °F °C ) Humidity (%) Winds ( mph kmh ) Pressure ( in mb ) Visibility ( mi km ) Precip ( " mm )
12:15 am 00:15 Partly Cloudy 78 25.7 77 25 96 96 Calm 30.03 1017 10 16 0.00 0.00
12:35 am 00:35 Partly Cloudy 78 25.6 77 25 97 97 E 3 6 30.03 1017 10 16 0.00 0.00
12:55 am 00:55 Mostly Cloudy 78 25.5 77 25 97 97 ESE 3 6 30.02 1017 10 16 0.00 0.00
1:15 am 01:15 Partly Cloudy 78 25.5 77 25.1 98 98 ESE 3 6 30.02 1017 10 16 0.00 0.00
1:55 am 01:55 Clear 78 25.5 77 25 97 97 ESE 3 6 30.02 1017 10 16 0.00 0.00
2:15 am 02:15 Partly Cloudy 78 25.5 77 25 97 97 ESE 6 9 30.02 1017 10 16 0.00 0.00
2:35 am 02:35 Clear 78 25.5 77 25 97 97 SE 6 9 30.01 1016 10 16 0.00 0.00
2:55 am 02:55 Clear 78 25.5 77 25 97 97 ESE 6 9 30.01 1016 10 16 0.00 0.00
3:15 am 03:15 Clear 78 25.5 77 25 97 97 ESE 7 11 30.01 1016 10 16 0.00 0.00
3:35 am 03:35 Partly Cloudy 78 25.8 77 25 95 95 Calm 30.01 1016 10 16 0.00 0.00
3:55 am 03:55 Cloudy 79 26.1 77 24.9 93 93 Calm 30.01 1016 10 16 0.00 0.00
4:15 am 04:15 Cloudy 79 26 76 24.7 93 93 ESE 7 11 30.01 1016 10 16 0.00 0.00
4:35 am 04:35 Partly Cloudy 79 26.1 76 24.7 92 92 SW 3 6 30.01 1016 10 16 0.00 0.00
4:55 am 04:55 Partly Cloudy 79 26.2 76 24.5 90 90 SW 3 6 30.01 1016 10 16 0.00 0.00
5:15 am 05:15 Partly Cloudy 80 26.5 76 24.5 89 89 SW 3 6 30.01 1016 10 16 0.00 0.00
5:35 am 05:35 Partly Cloudy with Rain 80 26.5 76 24.6 89 89 Calm 30.02 1017 10 16 0.00 0.00
6:00 am 06:00 Mostly Clear 79 26 75 24 89 89 SSW 5 7 30.01 1016 N/A 0.00 0.00
6:45 am 06:45 Mostly Cloudy with Heavy Rain 79 26 75 24 89 89 N 9 15 30.05 1018 3 5 0.00 0.00
7:45 am 07:45 Mostly Cloudy 77 25 73 23 89 89 SSE 5 7 30.04 1017 10 16 0.00 0.00
8:45 am 08:45 Mostly Cloudy 81 27 77 25 89 89 SE 7 11 30.04 1017 10 16 0.00 0.00
9:50 am 09:50 Mostly Cloudy 84 29 79 26 84 84 undefined N/A 30.04 1017 10 16 0.00 0.00
10:47 am 10:47 Mostly Cloudy 82 28 77 25 84 84 undefined N/A 30.05 1018 10 16 0.00 0.00
11:49 am 11:49 Partly Cloudy 77 25 75 24 94 94 undefined N/A 30.05 1018 10 16 0.00 0.00
2:50 pm 14:50 Mostly Cloudy with Light Rain 73 23 73 23 100 100 SW 3 6 30.06 1018 4 6 0.00 0.00
3:48 pm 15:48 Mostly Cloudy 73 23 73 23 100 100 WSW 5 7 30.06 1018 7 11 0.00 0.00
4:55 pm 16:55 Mostly Cloudy 73 23 72 22 94 94 Calm 30.02 1017 10 16 0.00 0.00
6:55 pm 18:55 Partly Cloudy 75 24 72 22 89 89 SSE 6 9 29.99 1016 10 16 0.00 0.00
7:50 pm 19:50 Cloudy 75 24 73 23 94 94 Calm 30.02 1017 10 16 0.00 0.00
8:55 pm 20:55 Partly Cloudy 75 24 73 23 94 94 Calm 30.03 1017 10 16 0.00 0.00
9:48 pm 21:48 Partly Cloudy 73 23 73 23 100 100 Calm 30.02 1017 10 16 0.00 0.00
10:15 pm 22:15 Clear 74 23.1 73 22.7 98 98 Calm 30.01 1016 10 16 0.00 0.00
10:35 pm 22:35 Clear 73 22.8 73 22.5 98 98 Calm 30.01 1016 10 16 0.00 0.00
10:55 pm 22:55 Clear 73 22.9 73 22.5 98 98 NNE 9 15 30.00 1016 10 16 0.00 0.00
11:15 pm 23:15 Clear 73 22.7 73 22.5 99 99 NNE 8 13 30.00 1016 10 16 0.00 0.00
11:35 pm 23:35 Clear 73 22.6 72 22.3 98 98 E 10 17 30.00 1016 10 16 0.00 0.00
11:55 pm 23:55 Clear 73 22.5 72 22.1 98 98 E 6 9 30.01 1016 7 11 0.00 0.00

Powered by AerisWeather